www.pogodaiklimat.ru
ПОГОДА в Ираеле
Время
(UTC), дата
03 19.01
06 19.01
09 19.01
12 19.01
15 19.01
18 19.01
21 19.01
00 20.01
03 20.01
06 20.01
09 20.01
12 20.01
15 20.01
18 20.01
21 20.01
00 21.01
03 21.01
06 21.01
09 21.01
12 21.01
15 21.01
18 21.01
21 21.01
00 22.01
03 22.01
06 22.01
09 22.01
12 22.01
15 22.01
18 22.01
21 22.01
00 23.01
03 23.01
06 23.01
09 23.01
12 23.01
15 23.01
18 23.01
21 23.01
00 24.01
03 24.01
06 24.01
09 24.01
12 24.01
15 24.01
18 24.01
21 24.01
00 25.01
03 25.01
06 25.01
09 25.01
12 25.01
15 25.01
18 25.01
21 25.01
Ветер
(напр.,м/с)
Видим. Явления Облачность Т
(С)
Тd
(С)
f
(%)
Тe
(С)
Тes
(С)
Комфортность P
(гПа)
Po
(гПа)
Тmin
(С)
Tmax
(С)
R
(мм)
R24
(мм)
S
(см)
Ю 1 10 км [диам. сложн. отлож. 22 мм] 10/0
[Ac As]
-28.4 -31.5 75 -32 -32 опасность
обморожения
1017.2 995.2 -35.0 38
Ю 1 10 км слаб. снег [диам. сложн. отлож. 22 мм] 10/6 600 м
[Sc As op]
-27.0 -29.4 80 -31 -31 опасность
обморожения
1015.7 993.8
Ю 2 10 км слаб. снег [диам. сложн. отлож. 22 мм] 10/4 600 м
[Sc As op Cs]
-25.1 -27.5 80 -32 -32 опасность
обморожения
1014.6 992.9
Ю 2 10 км слаб. снег [диам. сложн. отлож. 22 мм] 10/8 300 м
[Sc As op]
-23.1 -24.9 85 -29 -29 1013.3 991.7
Ю 2 4000 м слаб. снег [диам. сложн. отлож. 22 мм] 10/5 300 м
[Sc As op]
-23.4 -25.2 85 -30 -30 1012.4 990.9 -23.1 0.7
Ю 2 10 км слаб. снег [диам. сложн. отлож. 22 мм] 10/6 600 м
[Sc As op]
-21.5 -23.3 85 -28 -28 1011.3 989.9
Ю 2 10 км слаб. снег [диам. сложн. отлож. 22 мм] 10/10 600 м
[Sc]
-20.7 -22.6 85 -27 -27 1010.5 989.2
Ю 2 4000 м слаб. снег [диам. сложн. отлож. 22 мм] 10/10 600 м
[Sc]
-20.3 -22.2 85 -26 -26 1009.5 988.3
Ю 2 4000 м слаб. снег [диам. сложн. отлож. 22 мм] 10/10 300 м
[Sc]
-18.6 -20.5 85 -24 -24 1008.1 987.0 -23.4 2 39
Ю 2 4000 м слаб. снег [диам. сложн. отлож. 22 мм] 10/10 100 м
[St]
-17.5 -19.4 85 -23 -23 1007.2 986.2
ЮВ 2 10 км слаб. снег [диам. сложн. отлож. 22 мм] 10/10 100 м
[Frnb]
-16.5 -17.8 90 -22 -22 1006.5 985.6
ЮВ 2 10 км слаб. снег [диам. сложн. отлож. 22 мм] 10/8 200 м
[Frnb As op]
-16.4 -17.7 90 -22 -22 1005.7 984.9
ЮВ 1 10 км слаб. снег [диам. сложн. отлож. 22 мм] 10/0
[Ac As]
-16.9 -18.1 90 -20 -20 1006.0 985.1 -16.4 3
ЮВ 1 4000 м слаб. снег [диам. сложн. отлож. 22 мм] 10/8 300 м
[Frnb As op]
-16.2 -17.5 90 -19 -19 1006.1 985.3
ЮВ 2 10 км слаб. снег [диам. сложн. отлож. 22 мм] 10/6 300 м
[Sc As op]
-17.1 -19.0 85 -22 -22 1006.9 986.0
В 1 10 км слаб. снег [диам. сложн. отлож. 22 мм] 10/0
[As op]
-22.3 -24.1 85 -26 -26 1008.3 986.9
В 1 10 км слаб. снег [диам. сложн. отлож. 22 мм] 10/0
[As op]
-23.1 -24.9 85 -26 -26 1009.3 987.8 -23.4 2 43
В 1 10 км слаб. снег [диам. сложн. отлож. 22 мм] 10/4 600 м
[Sc As op]
-22.9 -24.8 84 -26 -26 1010.5 989.0 -24.1
В 2 10 км слаб. снег [диам. сложн. отлож. 22 мм] 10/3 600 м
[Sc Ac As Ci fib]
-21.5 -23.3 85 -28 -27 1011.7 990.3
В 1 10 км слаб. снег [диам. сложн. отлож. 22 мм] 10/1 600 м
[Sc Ac As]
-22.2 -24.0 85 -25 -25 1012.8 991.3
В 1 10 км слаб. снег [диам. сложн. отлож. 22 мм] 10/0
[Ac As Cs]
-22.6 -24.4 85 -26 -26 1014.2 992.7 -21.3 0.3
В 1 10 км слаб. снег [диам. сложн. отлож. 22 мм] 10/0
[Ac As Ci fib]
-22.0 -23.8 85 -25 -25 1015.6 994.1
В 1 10 км слаб. снег [диам. сложн. отлож. 22 мм] 10/5 600 м
[Sc Ac As]
-21.4 -23.3 85 -25 -25 1017.2 995.7
В 1 10 км слаб. снег [диам. сложн. отлож. 22 мм] 10/10 600 м
[Sc]
-21.0 -22.8 85 -24 -24 1018.9 997.4
СВ 1 10 км слаб. снег [диам. сложн. отлож. 22 мм] 10/10 600 м
[Sc]
-21.8 -23.6 85 -25 -25 1020.9 999.2 -23.0 0.2 43
штиль 0 10 км {снег} [диам. сложн. отлож. 22 мм] 6/0
[Ac As Cs]
-21.6 -30.4 45 -22 -22 1023.2 1001.0 -28.3
штиль 0 10 км [диам. сложн. отлож. 22 мм] 5/0
[Ac As Ci fib]
-22.3 -24.8 80 -22 -22 1024.9 1003.3
штиль 0 10 км [диам. сложн. отлож. 22 мм] 3/0
[Cs]
-25.7 -28.1 80 -26 -26 1027.1 1005.0
штиль 0 10 км [диам. сложн. отлож. 22 мм] 3/0
[Cs]
-29.8 -32.1 80 -30 -30 1028.6 1006.1 -15.6 0.0
ЮЗ 1 10 км [диам. сложн. отлож. 22 мм] 4/0
[Cs]
-30.7 -33.6 76 -35 -35 опасность
обморожения
1029.8 1007.3
штиль 0 10 км [диам. сложн. отлож. 22 мм] 6/0
[As trans Cs]
-30.3 -33.4 74 -30 -30 1030.8 1008.2
ЮЗ 1 10 км [диам. сложн. отлож. 22 мм] 10/0
[As trans Cs]
-27.0 -29.4 80 -31 -31 опасность
обморожения
1031.0 1008.7
Ю 1 10 км [диам. сложн. отлож. 22 мм] 10/0
[As trans Cs]
-27.4 -29.8 80 -31 -31 опасность
обморожения
1031.4 1009.1 -31.3 43
ЮВ 1 10 км [диам. сложн. отлож. 22 мм] 10/0
[Ac As]
-27.3 -29.8 79 -31 -31 опасность
обморожения
1031.3 1009.0
ЮВ 1 10 км [диам. сложн. отлож. 22 мм] 9/0
[Ac As Ci fib]
-25.7 -28.1 80 -29 -29 1031.1 1009.0
ЮВ 1 10 км [диам. сложн. отлож. 22 мм] 10/0
[Ac As Ci fib]
-26.2 -28.7 79 -30 -30 1030.8 1008.6
ЮВ 1 10 км [диам. сложн. отлож. 22 мм] 3/0
[Ci fib]
-28.1 -30.4 81 -32 -32 опасность
обморожения
1030.4 1008.0 -25.2
ЮВ 2 10 км [диам. сложн. отлож. 22 мм] ясно -28.6 -31.6 75 -36 -36 опасность
обморожения
1029.1 1006.8
ЮВ 2 10 км [диам. сложн. отлож. 22 мм] 3/0
[Ci fib]
-26.4 -28.8 80 -33 -33 опасность
обморожения
1027.1 1005.0
ЮВ 3 10 км [диам. сложн. отлож. 22 мм] 10/0
[Ac As Ci fib]
-24.2 -26.6 80 -33 -33 опасность
обморожения
1024.0 1002.2
ЮВ 4 4000 м слаб. снег [диам. сложн. отлож. 22 мм] 10/8 300 м
[Sc As op]
-22.8 -25.3 80 -32 -32 опасность
обморожения
1020.7 999.0 -29.1 0.6 44
ЮВ 4
{10}
2000 м снег {метель} [диам. сложн. отлож. 22 мм] 10/10 300 м
[Ns]
-19.9 -21.8 85 -29 -29 1018.6 997.2
Ю 3 2000 м снег {метель} [диам. сложн. отлож. 22 мм] 10/10 200 м
[Ns]
-18.2 -20.1 85 -25 -25 1018.5 997.3
Ю 3 10 км слаб. снег {метель} [диам. сложн. отлож. 22 мм] 10/8 300 м
[Sc As op]
-17.9 -19.8 85 -25 -25 1018.5 997.2
Ю 3 10 км слаб. снег [диам. сложн. отлож. 22 мм] 10/10 300 м
[Sc]
-17.5 -19.4 85 -25 -25 1018.9 997.7 -17.5 3
Ю 3 10 км слаб. снег [диам. сложн. отлож. 22 мм] 10/10 600 м
[Sc]
-16.9 -18.8 85 -24 -24 1018.1 997.0
Ю 3 10 км слаб. снег [диам. сложн. отлож. 22 мм] 10/8 600 м
[Sc Ac As]
-15.8 -17.7 85 -23 -23 1017.2 996.2
Ю 3 10 км слаб. снег {метель} [диам. сложн. отлож. 22 мм] 10/10 300 м
[Sc]
-14.9 -16.2 90 -21 -21 1016.0 995.1
Ю 4 10 км слаб. снег {метель} [диам. сложн. отлож. 22 мм] 10/10 300 м
[Frnb]
-15.3 -17.2 85 -23 -23 1014.3 993.4 -17.7 4 47
Ю 2 10 км {снег, метель} [диам. сложн. отлож. 22 мм] 10/10 300 м
[Frnb]
-14.7 -16.7 85 -20 -20 1013.5 992.6
ЮВ 1 10 км слаб. снег [диам. сложн. отлож. 22 мм] 10/6 300 м
[Frnb Ac As]
-13.0 -15.0 85 -15 -15 1013.4 992.7
ЮВ 1 4000 м слаб. снег [диам. сложн. отлож. 22 мм] 10/8 200 м
[Frnb Ac As]
-11.6 -12.9 90 -14 -14 1013.6 993.0
Ю 1 10 км слаб. снег [диам. сложн. отлож. 22 мм] 10/5 300 м
[Frnb Ac As]
-10.5 -11.1 95 -13 -13 1013.2 992.7 -10.5 2
Ю 2 4000 м слаб. переохл. морось (гололёд) [диам. сложн. отлож. 22 мм] 10/10 100 м
[St]
-8.2 -8.8 95 -13 -13 1011.9 991.6
Ю 2 10 км слаб. снег {морось} [диам. гололёда 2 мм] 10/10 200 м
[Frnb]
-5.9 -6.3 97 -10 -10 1010.6 990.5
Местоположение метеостанции Ираель (Коми, Россия): широта 64.52 долгота 55.40 высота над уровнем моря 157 м.
В архиве по умолчанию представлена погода в Ираеле за последнюю неделю. Архивные данные за месяц целиком и за предыдущие месяцы, начиная с января 2011 года, Вы можете получить, выбрав интересующий диапазон дат из раскрывающегося списка и нажав кнопку "Найти!".
*Определитесь, кто Вы:
Внимание! Время в таблицах - всемирное. Для получения местного времени необходимо прибавить поправку, которая равна 3 ч.
Смотрите также архив погоды в соседних городах и на ближайших метеорологических станциях:
Партнеры нашего сайта:      
Пояснения к столбцам:
  • Ветер - указаны скорость ветра в м/с - средняя за 10 мин, порывы в срок и между сроками (в фигурных скобках) и направление, откуда дует ветер: С - северный,
  • СВ - северо-восточный, В - восточный, ЮВ - юго-восточный, Ю - южный, ЮЗ - юго-западный, З - западный, СЗ - северо-западный.
  • Видимость - горизонтальная дальность видимости в метрах или километрах. При видимости от 1 до 10 км при отсутствии осадков обычно наблюдается дымка, при ухудшении видимости до 1 км и менее - туман. В сухую погоду видимость может ухудшаться дымом, пылью или мглою.
  • Явления - указаны атмосферные явления, наблюдавшиеся в срок или в последний час перед сроком; фигурными скобками обозначены явления, наблюдавшиеся между сроками (за 1-3 часа до срока); квадратными скобками обозначены град или гололедные отложения с указанием их диаметра в мм.
  • Облачность - указаны через наклонную черту общая и нижняя облачность в баллах и высота нижней границы облаков в метрах; квадратными скобками обозначены формы облаков: Ci - перистые, Cs - перисто-слоистые, Cc - перисто-кучевые, Ac - высококучевые, As - высокослоистые, Sc - слоисто-кучевые, Ns - слоисто-дождевые, Cu - кучевые, Cb - кучево-дождевые. Подробнее классификацию облаков см. в Атласе облаков (PDF).
  • T - Температура воздуха - температура, измеренная на высоте 2 м над землей.
  • Td - Температура точки росы - температура, при понижении до которой содержащийся в воздухе водяной пар достигнет насыщения.
  • f - Относительная влажность воздуха - влажноcть воздуха, измеренная на высоте 2 м над землей.
  • Te - Эффективная температура - температура, которую ощущает одетый по сезону человек в тени. Характеристика душности погоды. При расчете учитывается влияние влажности воздуха и скорости ветра на теплоощущения человека.
  • Tes - Эффективная температура на солнце - температура, которую ощущает человек, с поправкой на солнечный нагрев. Характеристика знойности погоды. Зависит от высоты солнца над горизонтом, облачности и скорости ветра. Ночью, в пасмурную погоду, а также при ветре 12 м/с и более поправка равна нулю.
  • P - Атмосферное давление - приведенное к уровню моря атмосферное давление.
  • Po - Атмосферное давление - измеренное на уровне метеостанции атмосферное давление.
  • Tmin - Минимальная температура - минимум температуры воздуха на высоте 2 м над землей.
  • Tmax - Максимальная температура - максимум температуры воздуха на высоте 2 м над землей.
  • R - Количество осадков - Количество выпавших осадков за период времени, мм. При наведении курсора мыши на число - период времени, за который выпало указанное количество осадков.
  • R24 - Количество осадков - Количество выпавших осадков за 24 часа, мм.
  • S - Снежный покров - Высота снежного покрова, см. При наведении курсора мыши на число - состояние снежного покрова и степень покрытия местности в баллах.